Home   Weather   Houston   Past weeks

Flag for USA Past Weather in Houston, Texas, USA — Yesterday and Last 2 Weeks

Now
72 °F

Passing clouds.


Feels Like: 77 °F
Forecast: 54 / 74 °F
Wind: 14 mph from Northwest

Location: Houston Hobby Airport

Current Time: Apr 23, 2017 at 5:17:14 pm

Latest Report: Apr 23, 2017 at 3:53 pm


Visibility: 10 mi

Pressure: 30.01 "Hg

Humidity: 40%

Dew Point: 46 °F

Location of HoustonLocation

Past Weather in Houston — Graph

°F

Houston Temperature Yesterday

Maximum temperature yesterday: 82 °F (at 11:53 am)
Minimum temperature yesterday: 61 °F (at 11:53 pm)
Average temperature yesterday: 72 °F

High & Low Weather Summary for the Past Weeks

 TemperatureHumidityPressure
High84 °F (Apr 20, 2:53 pm)100% (Apr 12, 1:53 am)30.22 "Hg (Apr 12, 1:53 am)
Low55 °F (Apr 23, 5:53 am)40% (Apr 23, 3:53 pm)29.83 "Hg (Apr 21, 6:53 pm)
Average72 °F79%30.05 "Hg
* Reported Apr 8 3:53 pm — Apr 23 3:53 pm, Houston, Weather by CustomWeather, © 2017

Note: Actual official high and low records may vary slightly from our data, if they occured in-between our weather recording intervals... More about our weather records

Advertising

Houston Weather History for the Previous 24 Hours

Scroll right to see more
 ConditionsComfort  
Time TempWeatherWind HumidityBarometerVisibility
3:53 pm
Sun, Apr 23
72 °FPassing clouds.14 mph40%30.01 "Hg10 mi
2:53 pm72 °FPassing clouds.16 mph41%30.04 "Hg10 mi
1:53 pm70 °FPassing clouds.12 mph42%30.06 "Hg10 mi
12:53 pm69 °FPassing clouds.17 mph44%30.08 "Hg10 mi
11:53 am65 °FSunny.12 mph49%30.10 "Hg10 mi
10:53 am63 °FScattered clouds.15 mph52%30.11 "Hg10 mi
9:53 am60 °FScattered clouds.15 mph56%30.12 "Hg10 mi
8:53 am58 °FPassing clouds.20 mph58%30.11 "Hg10 mi
7:53 am56 °FPassing clouds.15 mph60%30.11 "Hg10 mi
6:53 am55 °FScattered clouds.13 mph62%30.09 "Hg10 mi
5:53 am55 °FPassing clouds.15 mph62%30.08 "Hg10 mi
4:53 am57 °FPassing clouds.14 mph58%30.07 "Hg10 mi
3:53 am57 °FPassing clouds.18 mph58%30.06 "Hg10 mi
2:53 am59 °FPartly cloudy.16 mph58%30.06 "Hg10 mi
1:53 am60 °FPassing clouds.17 mph58%30.07 "Hg10 mi
12:53 am60 °FLight rain. Mostly cloudy.20 mph67%30.08 "Hg10 mi
11:53 pm
Sat, Apr 22
61 °FPassing clouds.23 mph60%30.08 "Hg10 mi
10:53 pm62 °FPassing clouds.22 mph60%30.07 "Hg10 mi
9:53 pm63 °FPartly cloudy.21 mph60%30.05 "Hg10 mi
8:53 pm65 °FPassing clouds.17 mph66%30.01 "Hg10 mi
7:53 pm66 °FPassing clouds.14 mph68%29.99 "Hg10 mi
6:53 pm68 °FScattered clouds.14 mph65%29.96 "Hg10 mi
5:53 pm72 °FBroken clouds.16 mph64%29.95 "Hg10 mi
Weather by CustomWeather, © 2017

See weather overviewHow to use our weather pages